Flag for Switzerland Weather past 2 weeks in Altdorf, Uri, Switzerland

Now
72 °F

Mild.


Feels Like: 77 °F
Forecast: 59 / 78 °F
Wind: 10 mph from Southwest

Location: Altdorf

Current Time: Sep 19, 2014 at 5:50:13 AM

Latest Report: Sep 19, 2014 at 4:00 AM


Visibility: N/A

Pressure: 29.89 "Hg

Humidity: 42%

Dew point: 48 °F

Location of AltdorfLocation

Historic Weather in Altdorf — Graph

°F

Altdorf temperature yesterday

Maximum temperature yesterday: 76 °F (at 1:00 PM)
Minimum temperature yesterday: 60 °F (at 7:00 AM)
Average temperature yesterday: 68 °F

Past Weeks' High & Low Weather Summary

 TemperatureHumidityPressure
High76 °F (Sep 18, 1:00 PM)98% (Sep 14, 8:00 AM)30.14 "Hg (Sep 14, 8:00 AM)
Low47 °F (Sep 14, 8:00 AM)38% (Sep 18, 1:00 PM)29.81 "Hg (Sep 17, 5:00 PM)
Average62 °F81%29.97 "Hg
* Reported Sep 4 4:00 AM — Sep 19 4:00 AM, Altdorf, Weather by CustomWeather, © 2014

Note: Actual official high and low records may vary slightly from our data, if they occured in-between our weather recording intervals... More about our weather records

Advertising

Altdorf weather history for previous 24 hours

 ConditionsComfort  
Time TempWeatherWind HumidityBarometerVisibility
4:00 AM
Sep 19
72 °FMild.10 mph42%29.89 "HgN/A
3:00 AM71 °FMild.15 mph45%29.88 "HgN/A
2:00 AM69 °FPassing clouds.8 mph47%29.90 "Hg16 mi
1:00 AM70 °FMild.9 mph44%29.90 "HgN/A
12:00 AM70 °FMild.15 mph46%29.90 "HgN/A
11:00 PM
Sep 18
69 °FPassing clouds.13 mph49%29.91 "Hg16 mi
10:00 PM68 °FMild.5 mph51%29.91 "HgN/A
9:00 PM67 °FMild.7 mph54%29.90 "HgN/A
8:00 PM71 °FPassing clouds.6 mph46%29.88 "Hg15 mi
7:00 PM71 °FMild.2 mph48%29.88 "HgN/A
6:00 PM69 °FMild.3 mph65%29.88 "HgN/A
5:00 PM68 °FOvercast.6 mph70%29.89 "Hg14 mi
4:00 PM68 °FMild.10 mph71%29.88 "HgN/A
3:00 PM71 °FMild.7 mph56%29.87 "HgN/A
2:00 PM74 °FOvercast.14 mph39%29.84 "Hg16 mi
1:00 PM76 °FMild.16 mph38%29.82 "HgN/A
12:00 PM69 °FMild.9 mph62%29.84 "HgN/A
11:00 AM68 °FPartly sunny.10 mph68%29.86 "Hg16 mi
10:00 AM65 °FMild.6 mph70%29.87 "HgN/A
9:00 AM63 °FMild.5 mph72%29.88 "HgN/A
8:00 AM62 °FPartly sunny.6 mph78%29.89 "Hg16 mi
7:00 AM60 °FCool.3 mph85%29.88 "HgN/A
6:00 AM63 °FMild.9 mph75%29.87 "HgN/A
5:00 AM67 °FPassing clouds.5 mph51%29.85 "Hg17 mi
Weather by CustomWeather, © 2014

See weather overviewHow to use our weather pages